Météo par heure à Kyzyl Yul

Ce jour, 4 Août, Mercredi

Heure Température Précipitation Vent Pression Humidité
00:00 +26°C° 0 mm 2 m/s 743 mmHg 34%
01:00 +26°C° 0 mm 2 m/s 743 mmHg 35%
02:00 +25°C° 0 mm 2 m/s 743 mmHg 38%
03:00 +25°C° 0 mm 2 m/s 743 mmHg 40%
04:00 +24°C° 0 mm 2 m/s 743 mmHg 43%
05:00 +25°C° 0 mm 2 m/s 744 mmHg 41%
06:00 +27°C° 0 mm 1 m/s 744 mmHg 40%
07:00 +28°C° 0 mm 1 m/s 744 mmHg 38%
08:00 +31°C° 0 mm 1 m/s 744 mmHg 33%
09:00 +34°C° 0 mm 2 m/s 744 mmHg 28%
10:00 +37°C° 0 mm 2 m/s 744 mmHg 24%
11:00 +38°C° 0 mm 3 m/s 744 mmHg 21%
12:00 +40°C° 0 mm 4 m/s 744 mmHg 18%
13:00 +42°C° 0 mm 5 m/s 743 mmHg 14%
14:00 +42°C° 0 mm 6 m/s 743 mmHg 14%
15:00 +41°C° 0 mm 7 m/s 743 mmHg 15%
16:00 +39°C° 0 mm 10 m/s 743 mmHg 20%
17:00 +37°C° 0 mm 8 m/s 742 mmHg 22%
18:00 +35°C° 0 mm 6 m/s 742 mmHg 24%
19:00 +34°C° 0 mm 4 m/s 742 mmHg 25%
20:00 +33°C° 0 mm 4 m/s 742 mmHg 28%
21:00 +30°C° 0 mm 4 m/s 742 mmHg 30%
22:00 +29°C° 0 mm 4 m/s 741 mmHg 32%
23:00 +28°C° 0 mm 4 m/s 741 mmHg 35%

Demain, 5 Août, Jeudi

Heure Température Précipitation Vent Pression Humidité
00:00 +27°C° 0 mm 4 m/s 741 mmHg 37%
01:00 +26°C° 0 mm 3 m/s 741 mmHg 39%
02:00 +25°C° 0 mm 3 m/s 741 mmHg 48%
03:00 +23°C° 0 mm 2 m/s 742 mmHg 56%
04:00 +21°C° 0 mm 2 m/s 742 mmHg 64%
05:00 +23°C° 0 mm 1 m/s 742 mmHg 64%
06:00 +24°C° 0 mm 1 m/s 742 mmHg 65%
07:00 +25°C° 0 mm 1 m/s 743 mmHg 65%
08:00 +26°C° 0 mm 2 m/s 743 mmHg 59%
09:00 +28°C° 0 mm 2 m/s 743 mmHg 53%
10:00 +29°C° 0 mm 3 m/s 743 mmHg 47%
11:00 +30°C° 0 mm 3 m/s 743 mmHg 43%
12:00 +31°C° 0 mm 3 m/s 743 mmHg 40%
13:00 +33°C° 0 mm 3 m/s 742 mmHg 36%
14:00 +33°C° 0 mm 3 m/s 742 mmHg 37%
15:00 +32°C° 0 mm 4 m/s 742 mmHg 37%
16:00 +32°C° 0 mm 5 m/s 742 mmHg 37%
17:00 +30°C° 0.1 mm 6 m/s 742 mmHg 37%
18:00 +29°C° 0.1 mm 6 m/s 742 mmHg 38%
19:00 +28°C° 0.1 mm 7 m/s 743 mmHg 39%
20:00 +27°C° 0 mm 6 m/s 743 mmHg 40%
21:00 +26°C° 0 mm 6 m/s 743 mmHg 42%
22:00 +25°C° 0 mm 5 m/s 744 mmHg 43%
23:00 +23°C° 0 mm 4 m/s 744 mmHg 46%

Après-demain, 6 Août, Vendredi

Heure Température Précipitation Vent Pression Humidité
00:00 +21°C° 0 mm 4 m/s 744 mmHg 50%
01:00 +20°C° 0 mm 3 m/s 744 mmHg 53%
02:00 +19°C° 0 mm 3 m/s 744 mmHg 60%
03:00 +18°C° 0 mm 3 m/s 744 mmHg 66%
04:00 +16°C° 0 mm 3 m/s 744 mmHg 73%
05:00 +17°C° 0 mm 3 m/s 745 mmHg 70%
06:00 +19°C° 0 mm 3 m/s 745 mmHg 67%
07:00 +20°C° 0 mm 4 m/s 745 mmHg 65%
08:00 +22°C° 0 mm 4 m/s 745 mmHg 56%
09:00 +23°C° 0 mm 5 m/s 745 mmHg 48%
10:00 +26°C° 0 mm 5 m/s 746 mmHg 40%
11:00 +27°C° 0 mm 5 m/s 745 mmHg 36%
12:00 +28°C° 0 mm 5 m/s 745 mmHg 32%
13:00 +29°C° 0 mm 5 m/s 745 mmHg 28%
14:00 +29°C° 0 mm 5 m/s 745 mmHg 27%
15:00 +29°C° 0 mm 5 m/s 745 mmHg 27%
16:00 +30°C° 0 mm 5 m/s 745 mmHg 26%
17:00 +29°C° 0 mm 4 m/s 745 mmHg 28%
18:00 +28°C° 0 mm 4 m/s 745 mmHg 31%
19:00 +26°C° 0 mm 3 m/s 745 mmHg 33%
20:00 +24°C° 0 mm 3 m/s 746 mmHg 35%
21:00 +21°C° 0 mm 3 m/s 746 mmHg 38%
22:00 +19°C° 0 mm 3 m/s 746 mmHg 40%
23:00 +18°C° 0 mm 3 m/s 746 mmHg 43%

7 Août, Samedi

Heure Température Précipitation Vent Pression Humidité
00:00 +16°C° 0 mm 2 m/s 747 mmHg 47%
01:00 +15°C° 0 mm 2 m/s 747 mmHg 50%
02:00 +15°C° 0 mm 1 m/s 747 mmHg 52%
03:00 +14°C° 0 mm 1 m/s 747 mmHg 55%
04:00 +14°C° 0 mm 1 m/s 747 mmHg 57%
05:00 +15°C° 0 mm 1 m/s 748 mmHg 53%
06:00 +18°C° 0 mm 1 m/s 748 mmHg 49%
07:00 +19°C° 0 mm 1 m/s 748 mmHg 44%
08:00 +20°C° 0 mm 2 m/s 748 mmHg 40%
09:00 +23°C° 0 mm 2 m/s 748 mmHg 35%
10:00 +25°C° 0 mm 3 m/s 748 mmHg 31%
11:00 +27°C° 0 mm 3 m/s 748 mmHg 29%
12:00 +28°C° 0 mm 3 m/s 748 mmHg 27%
13:00 +29°C° 0 mm 3 m/s 748 mmHg 25%
14:00 +29°C° 0 mm 4 m/s 748 mmHg 25%
15:00 +30°C° 0 mm 4 m/s 748 mmHg 25%
16:00 +30°C° 0 mm 5 m/s 748 mmHg 25%
17:00 +29°C° 0 mm 5 m/s 748 mmHg 28%
18:00 +28°C° 0 mm 5 m/s 748 mmHg 31%
19:00 +26°C° 0 mm 5 m/s 748 mmHg 33%
20:00 +23°C° 0 mm 4 m/s 749 mmHg 39%
21:00 +20°C° 0 mm 3 m/s 749 mmHg 45%
22:00 +18°C° 0 mm 3 m/s 749 mmHg 51%
23:00 +17°C° 0 mm 2 m/s 749 mmHg 53%

8 Août, Dimanche

Heure Température Précipitation Vent Pression Humidité
00:00 +16°C° 0 mm 2 m/s 749 mmHg 55%
01:00 +15°C° 0 mm 1 m/s 749 mmHg 58%
02:00 +15°C° 0 mm 1 m/s 749 mmHg 59%
03:00 +15°C° 0 mm 1 m/s 749 mmHg 61%
04:00 +13°C° 0 mm 0 m/s 750 mmHg 63%
05:00 +15°C° 0 mm 0 m/s 750 mmHg 58%
06:00 +16°C° 0 mm 0 m/s 750 mmHg 54%
07:00 +20°C° 0 mm 1 m/s 750 mmHg 49%
08:00 +22°C° 0 mm 1 m/s 750 mmHg 44%
09:00 +25°C° 0 mm 1 m/s 750 mmHg 39%
10:00 +28°C° 0 mm 1 m/s 750 mmHg 33%
11:00 +29°C° 0 mm 1 m/s 750 mmHg 30%
12:00 +31°C° 0 mm 1 m/s 749 mmHg 27%
13:00 +32°C° 0 mm 1 m/s 749 mmHg 24%
14:00 +33°C° 0 mm 1 m/s 749 mmHg 23%
15:00 +33°C° 0 mm 1 m/s 749 mmHg 22%
16:00 +34°C° 0 mm 1 m/s 748 mmHg 21%
17:00 +33°C° 0 mm 1 m/s 748 mmHg 23%
18:00 +32°C° 0 mm 1 m/s 748 mmHg 25%
19:00 +31°C° 0 mm 1 m/s 748 mmHg 27%
20:00 +29°C° 0 mm 2 m/s 748 mmHg 31%
21:00 +26°C° 0 mm 2 m/s 748 mmHg 36%
22:00 +24°C° 0 mm 2 m/s 748 mmHg 41%
23:00 +24°C° 0 mm 2 m/s 748 mmHg 41%

9 Août, Lundi

Heure Température Précipitation Vent Pression Humidité
00:00 +23°C° 0 mm 2 m/s 748 mmHg 42%
01:00 +23°C° 0 mm 2 m/s 747 mmHg 43%
02:00 +23°C° 0 mm 2 m/s 747 mmHg 42%
03:00 +23°C° 0 mm 2 m/s 747 mmHg 42%
04:00 +23°C° 0 mm 2 m/s 747 mmHg 41%
05:00 +25°C° 0 mm 2 m/s 747 mmHg 40%
06:00 +26°C° 0 mm 3 m/s 747 mmHg 38%
07:00 +27°C° 0 mm 3 m/s 747 mmHg 36%
08:00 +29°C° 0 mm 4 m/s 747 mmHg 32%
09:00 +32°C° 0 mm 5 m/s 747 mmHg 27%
10:00 +35°C° 0 mm 6 m/s 747 mmHg 22%
11:00 +36°C° 0 mm 6 m/s 747 mmHg 20%
12:00 +36°C° 0 mm 6 m/s 746 mmHg 19%
13:00 +38°C° 0 mm 6 m/s 746 mmHg 18%
14:00 +37°C° 0 mm 5 m/s 746 mmHg 18%
15:00 +36°C° 0 mm 5 m/s 746 mmHg 18%
16:00 +36°C° 0 mm 5 m/s 746 mmHg 18%
17:00 +35°C° 0 mm 4 m/s 746 mmHg 20%
18:00 +34°C° 0 mm 3 m/s 745 mmHg 21%
19:00 +32°C° 0 mm 2 m/s 745 mmHg 22%
20:00 +31°C° 0 mm 2 m/s 745 mmHg 23%
21:00 +30°C° 0 mm 2 m/s 745 mmHg 25%
22:00 +29°C° 0 mm 2 m/s 745 mmHg 26%
23:00 +29°C° 0 mm 3 m/s 745 mmHg 27%
Voir plus

Nous avons besoin de votre consentement

Meteoprog et ses fournisseurs de services peuvent stocker et accéder à des données personnelles telles que des cookies, des identifiants d'appareils ou d'autres technologies similaires sur votre appareil et traiter ces données pour personnaliser le contenu et les publicités, ainsi que pour fournir des fonctionnalités de médias sociaux et analyser le trafic.

  • Stocker et/ou accéder à des informations sur votre appareil

    Des cookies, des identifiants d'appareils ou d'autres informations peuvent être stockés ou accessibles sur votre appareil aux fins indiquées ci-dessus.

  • Annonces et contenus personnalisés, mesure des annonces et des contenus, connaissance de l'audience et développement de produits

    Les annonces et le contenu peuvent être personnalisés en fonction d'un profil. D'autres données peuvent être ajoutées pour mieux personnaliser les annonces et le contenu. Les performances des publicités et du contenu peuvent être mesurées. Il est possible d'obtenir des informations sur le public qui a vu les publicités et le contenu. Ces données peuvent être utilisées pour développer ou améliorer l'expérience de l'utilisateur, les systèmes et les logiciels.

En cliquant sur "J'accepte", vous autorisez l'utilisation de cookies, des identifiants d'appareils, des balises web ou d'autres technologies similaires. Vos paramètres peuvent être modifiés dans le navigateur de votre appareil.

Dans certains cas, des intérêts légitimes peuvent être invoqués plutôt qu'un consentement. Vous pouvez en savoir plus à ce sujet dans notre Politique de confidentialité et de cookies.